COSMOS 1691 DEB, 43314

Orbit data source: Space-Track

COSMOS 1691 DEB, 43314 is space debris in LEO originally from a launch on Wed, 09 Oct 1985 UTC launched from the Plesetsk Missile And Space Complex (PKMTR). Debris objects in space refer to the collection of defunct objects orbiting the Earth. Examples of debris include non-operational satellites, rocket bodies, and fragments generated from explosions, collisions, or faulty payload assembly.

Loading next visibility...
Identifier
43314, 1985-094Y
Orbit
LEO
Country
Flag of CISCIS
Related business
Manufacturer
Unknown
Mission
Spacecraft
Bus & Motor
Unknown
Mass
Unknown
Launch date (UTC)
1985-10-09 (41 years ago)
Launch vehicle
Unknown
Launch site
Plesetsk Missile And Space Complex (PKMTR)
Object type
Payload
Rocket body
Debris
Shape & HBR
Unknown shape, 0.1 m
Radar Cross Section
Medium (>0.1 m² and <1 m²)

Expand to show TLE details & history
Last TLE update: 2 weeks ago

TLE from 2 weeks ago
0 COSMOS 1691 DEB
1 43314U 85094Y   26162.38695975  .00000270  00000-0  11514-2 0  9993
2 43314  82.5558  38.2329 0040211 258.7618 100.8961 12.79050432585075
Epoch: 2026-06-11T09:17Z
TLE epoch observation values (Epoch: 2026-06-11T09:17:13.322Z)
Latitude
-0.00011°
Longitude
-0.80411°
Altitude
1,354.035 km
Speed
7.178 km/s
True Right ascension
02h 32m 55s
True Declination
0° 00' 00"
Sunlit
Object was in daylight at epoch
Visualization orbit readout
Latitude
Unknown
Longitude
Unknown
Altitude
Unknown
Speed
Unknown
Apparent Right ascension
Unknown
Apparent Declination
Unknown
Sunlit
N/A
Visualization observer readout
Local Sidereal Time
21:35:02
Azimuth
Unknown
Elevation
Unknown
Doppler factor
Unknown
Orbital elements
Apogee altitude
1,373.634 km
Perigee altitude
1,311.542 km
Semi-major axis
7,720.725 km
Eccentricity
0.00402
Inclination
82.5558°
RAAN
38.2329°
Arg. of periapsis
258.7618°
True anomaly
101.34814°
Mean anomaly
100.8961°
Eccentric anomaly
101.12216°
Mean motion
3.19931 °/min
Orbital period
112.52 mins
BSTAR
0.0011514
Loading maneuver chart data...
Computing Atmospheric mass density...
Loading historical data...
Loading historical data...
Loading historical data...
Loading historical data...
Loading historical data...
Loading historical data...
Loading historical data...

Documentation

Showing up to 5 results
|